#timestamp,LO_Frequency,Hit,StdDev 
1658408415.7,286047006.3,N
1658408435.6,286047004.5,N
1658408455.4,286047006.9,N
1658408475.2,286047006.5,N
1658408495.1,286047006.2,N
1658408496.0,286047006.2,N
1658408515.8,286047005.4,N
1658408535.7,286047005.8,N
1658408555.5,286047009.1,N
1658408575.3,286047008.7,N
1658408595.2,286047008.4,N
1658408615.0,286047009.1,N
1658408615.9,286047009.1,N
1658408635.8,286047007.5,N
1658408655.6,286047005.8,N
1658408675.4,286047005.5,N
1658408695.3,286047007.2,N
1658408715.1,286047006.8,N
1658408735.8,286047006.9,N
1658408755.7,286047004.9,N
1658408775.5,286047004.6,N
1658408795.3,286047003.2,N
1658408815.2,286047001.4,N
1658408835.0,286047000.5,N
1658408835.9,286047000.5,N
1658408855.8,286047000.4,N
1658408875.6,286047000.4,N
1658408895.4,286047002.0,N
1658408915.3,286047003.0,N
1658408935.1,286047005.1,N
1658408955.9,286047003.9,N
1658408975.7,286047001.0,N
1658408995.5,286047001.1,N
1658409015.4,286046998.1,N
1658409035.2,286046999.5,N
1658409055.0,286046999.5,N
1658409055.9,286046999.5,N
1658409075.8,286046995.3,N
1658409095.6,286046995.7,N
1658409115.5,286046994.1,N
1658409135.3,286046993.6,N
1658409155.1,286046993.4,N
1658409175.9,286046996.4,N
1658409195.7,286046993.7,N
1658409215.5,286046996.1,N
1658409235.4,286046997.5,N
1658409255.2,286046997.1,N
1658409275.1,286046997.5,N
1658409276.0,286046997.5,N
1658409295.8,286046995.9,N
1658409315.6,286046997.8,N
1658409335.5,286046997.8,N
1658409355.3,286046997.1,N
1658409375.1,286046997.7,N
1658409395.9,286047000.6,N
1658409415.7,286046998.6,N
1658409435.6,286046999.3,N
1658409455.4,286046999.1,N
1658409475.2,286046999.3,N
1658409495.1,286046996.7,N
1658409496.0,286046996.7,N
1658409515.8,286046994.9,N
1658409535.6,286046993.6,Y
1658409555.5,286046997.5,P
1658409575.3,286046997.4,P
1658409595.2,286046997.5,P
1658409615.9,286046996.7,Y
1658409635.7,286047000.5,P
1658409655.6,286047002.8,N
1658409675.4,286047000.5,N
1658409695.3,286047001.7,N
1658409715.1,286047002.0,N
1658409716.0,286047002.0,N
1658409735.8,286047000.7,N
1658409755.7,286047000.5,N
1658409775.5,286047001.0,N
1658409795.3,286046999.0,N
1658409815.2,286046998.5,N
1658409835.0,286046998.3,N
1658409835.9,286046998.3,N
1658409855.8,286046998.3,N
1658409875.6,286047001.2,N
1658409895.4,286047000.2,N
1658409915.3,286047001.2,N
1658409935.1,286047000.3,N
1658409955.8,286046999.7,N
1658409975.7,286047003.1,N
1658409995.5,286047003.3,N
1658410015.4,286047005.1,Y
1658410035.2,286047005.9,P
1658410055.0,286047007.4,N
1658410055.9,286047007.4,N
1658410075.8,286047008.9,Y
1658410095.6,286047002.1,P
1658410115.5,286046998.1,N
1658410135.3,286046995.1,N
1658410155.1,286046997.8,N
1658410175.9,286046996.9,N
1658410195.7,286046999.4,N
1658410215.5,286046996.7,N
1658410235.4,286046999.4,N
1658410255.2,286046998.9,N
1658410275.1,286047000.8,N
1658410276.0,286047000.8,N
1658410295.8,286047000.9,N
1658410315.6,286046999.6,N
1658410335.5,286046999.6,N
1658410355.3,286046999.2,N
1658410375.1,286046996.8,N
1658410395.9,286046993.9,N
1658410415.7,286046996.0,N
1658410435.6,286046997.0,N
1658410455.4,286046999.2,N
1658410475.2,286046995.6,N
1658410495.1,286046994.2,N
1658410496.0,286046994.2,N
1658410515.8,286046994.8,N
1658410535.6,286046992.1,N
1658410555.5,286046994.6,N
1658410575.3,286046992.2,N
1658410595.2,286046994.2,N
1658410615.9,286046990.5,Y
1658410635.7,286046992.1,P
1658410655.6,286046992.1,N
1658410675.4,286046994.0,N
1658410725.3,286046995.2,E
1658410735.2,286047000.7,N
1658410755.0,286047000.1,P
1658410755.9,286047000.1,N
1658410775.8,286047002.6,Y
1658410795.6,286047000.1,P
1658410815.5,286046999.7,P
1658410835.3,286046998.6,P
1658410855.1,286047000.4,N
1658410875.9,286047001.1,N
1658410895.7,286047001.0,N
1658410915.5,286046997.3,Y
1658410935.4,286046996.7,P
1658410955.2,286046996.6,N
1658410975.1,286046995.5,N
1658410976.0,286046995.5,N
1658410995.8,286046994.4,Y
1658411015.6,286046995.2,P
1658411035.5,286046996.4,P
1658411055.3,286046993.5,P
1658411075.2,286046994.0,Y
1658411095.9,286046998.3,P
1658411115.7,286046998.5,N
1658411135.6,286047001.2,N
1658411155.4,286047000.6,N
1658411175.2,286047001.8,N
1658411195.1,286047004.1,N
1658411196.0,286047004.1,N
1658411215.8,286047003.4,N
1658411235.7,286047003.4,N
1658411255.5,286047001.3,N
1658411275.3,286047003.6,N
1658411295.2,286047005.3,N
1658411315.0,286047003.5,N
1658411315.9,286047003.5,N
1658411335.8,286047004.4,N
1658411355.6,286047001.5,N
1658411375.4,286047002.0,N
1658411395.3,286047002.7,N
1658411415.1,286047002.5,N
1658411435.8,286046999.8,N
1658411455.7,286046999.7,N
1658411475.5,286047000.9,N
1658411495.4,286046998.2,N
1658411515.2,286047000.0,N
1658411535.0,286046998.1,N
1658411535.9,286046998.1,N
1658411555.8,286046998.1,N
1658411575.6,286047000.6,N
1658411595.4,286046998.2,N
1658411615.3,286047001.2,N
1658411635.1,286047000.8,N
1658411655.9,286047000.9,N
1658411675.7,286046998.1,N
1658411695.5,286046998.6,N
1658411715.4,286047000.7,N
1658411735.2,286046998.2,N
1658411755.0,286047001.1,N
1658411755.9,286047001.1,N
1658411775.8,286046998.3,N
1658411795.6,286046996.6,N
1658411815.5,286046998.0,N
1658411835.3,286046995.4,N
1658411855.1,286046993.9,N
1658411875.9,286046995.0,N
1658411895.7,286046996.5,N
1658411915.5,286046998.9,N
1658411935.4,286047001.1,N
1658411955.2,286046998.5,N
1658411975.1,286046998.7,N
1658411976.0,286046998.7,N
1658411995.8,286046999.5,N
